Sexton Summit, OR

3:55 PM PDT on October 22, 2017 (GMT -0700)
Sexton Summit

Weather History for KSXT - November, 2012

Change the Weather History Date:

Wednesday, November 14, 2012

  Actual Average Record
Temperature  
Mean Temperature 40 °F -  
Max Temperature 44 °F 43 °F 60 °F (1999)
Min Temperature 37 °F 35 °F 30 °F (2000)
Degree Days  
Heating Degree Days 24    
Moisture  
Dew Point 39 °F    
Average Humidity 93    
Maximum Humidity 100    
Minimum Humidity 76    
Precipitation  
Precipitation 0.01 in - - ()
Sea Level Pressure  
Sea Level Pressure 30.16 in    
Wind  
Wind Speed 3 mph (East)    
Max Wind Speed 8 mph    
Max Gust Speed -    
Visibility 2 miles    
Events Fog , Rain    
Averages and records for this station are not official NWS values.
T = Trace of Precipitation, MM = Missing Value Source: NWS Daily Summary

Daily Weather History Graph

Daily Weather History Graph

Search for Another Location

Airport or City:

Trip Planner

Search our weather history database for the weather conditions in past years. The results will help you decide how hot, cold, wet, or windy it might be!

Date:

Astronomy

Nov. 14, 2012 Rise Set
Actual Time 7:04 AM PST 4:51 PM PST
Civil Twilight 6:34 AM PST 5:21 PM PST
Nautical Twilight 5:59 AM PST 5:55 PM PST
Astronomical Twilight 5:26 AM PST 6:28 PM PST
Moon 8:01 AM PST (11/14) 5:43 PM PST (11/14)
Length of Visible Light 10h 47m
Length of Day
9h 46m
New Moon, 1% of the Moon is Illuminated
Nov 14
New Moon
Nov 20
First Quarter
Nov 28
Full
Dec 6
Last Quarter
Dec 13
New

Hourly Weather History & Observations

Time (PST) Temp. Windchill Dew Point Humidity Pressure Visibility Wind Dir Wind Speed Gust Speed Precip Events Conditions
12:56 AM 39.9 °F - 39.0 °F 97% 30.20 in 0.2 mi Calm Calm - N/A Fog Fog
1:56 AM 39.0 °F - 37.9 °F 96% 30.19 in 0.2 mi Calm Calm - N/A Fog Fog
2:56 AM 39.0 °F - 37.9 °F 96% 30.20 in 0.2 mi Calm Calm - N/A Fog Fog
3:56 AM 39.0 °F - 37.9 °F 96% 30.20 in 0.2 mi Calm Calm - N/A Fog Fog
4:56 AM 37.9 °F 35.5 °F 37.0 °F 97% 30.21 in 0.2 mi SE 3.5 mph - N/A Fog Fog
5:56 AM 37.9 °F 33.5 °F 37.9 °F 100% 30.21 in 0.2 mi ESE 5.8 mph - 0.00 in Fog Fog
6:56 AM 37.9 °F 33.5 °F 37.0 °F 97% 30.21 in 0.2 mi SE 5.8 mph - N/A Fog Fog
7:56 AM 37.9 °F 35.5 °F 37.9 °F 100% 30.23 in 0.2 mi Variable 3.5 mph - N/A Fog Fog
8:56 AM 39.0 °F - 37.9 °F 96% 30.22 in 0.2 mi Calm Calm - N/A Fog Fog
9:56 AM 39.9 °F 37.8 °F 39.0 °F 97% 30.23 in 0.2 mi SE 3.5 mph - N/A Fog Fog
10:56 AM 41.0 °F - 41.0 °F 100% 30.23 in 0.2 mi Calm Calm - N/A Fog Fog
11:56 AM 42.1 °F 39.2 °F 39.9 °F 92% 30.21 in 0.8 mi East 4.6 mph - 0.00 in   Mist
12:14 PM 42.8 °F 41.1 °F 41.0 °F 93% 30.19 in 0.2 mi Variable 3.5 mph - 0.00 in Fog Fog
12:43 PM 42.8 °F - 41.0 °F 93% 30.18 in 1.0 mi Calm Calm - 0.00 in   Mist
12:45 PM 42.8 °F 41.1 °F 41.0 °F 93% 30.18 in 3.0 mi East 3.5 mph - 0.00 in   Overcast
12:56 PM 43.0 °F - 41.0 °F 93% 30.19 in 10.0 mi Calm Calm - 0.01 in   Mostly Cloudy
1:10 PM 44.6 °F 43.1 °F 42.8 °F 93% 30.18 in 1.8 mi Variable 3.5 mph - N/A   Mostly Cloudy
1:20 PM 42.8 °F 40.1 °F 41.0 °F 93% 30.17 in 4.0 mi Variable 4.6 mph - N/A   Mostly Cloudy
1:38 PM 42.8 °F - 42.8 °F 100% 30.17 in 2.0 mi Calm Calm - 0.00 in Rain Light Rain
1:45 PM 42.8 °F 41.1 °F 41.0 °F 93% 30.17 in 1.2 mi ENE 3.5 mph - 0.00 in Rain Light Rain
1:48 PM 42.8 °F 41.1 °F 41.0 °F 93% 30.17 in 0.2 mi East 3.5 mph - 0.00 in Fog Fog
1:56 PM 44.1 °F - 41.0 °F 89% 30.18 in 0.5 mi Calm Calm - 0.00 in Fog Fog
2:37 PM 42.8 °F 41.1 °F 41.0 °F 93% 30.16 in 0.2 mi ENE 3.5 mph - N/A Fog Fog
2:53 PM 44.6 °F 43.1 °F 41.0 °F 87% 30.16 in 0.5 mi East 3.5 mph - N/A Fog Fog
2:56 PM 43.0 °F - 41.0 °F 93% 30.18 in 0.5 mi Calm Calm - N/A Fog Fog
3:05 PM 44.6 °F 42.2 °F 39.2 °F 81% 30.16 in 2.5 mi East 4.6 mph - N/A   Mostly Cloudy
3:10 PM 44.6 °F 41.4 °F 39.2 °F 81% 30.16 in 10.0 mi East 5.8 mph - N/A   Scattered Clouds
3:56 PM 43.0 °F 41.3 °F 36.0 °F 76% 30.17 in 10.0 mi East 3.5 mph - N/A   Clear
4:12 PM 39.2 °F 35.9 °F 37.4 °F 93% 30.15 in 1.5 mi NE 4.6 mph - N/A   Partly Cloudy
4:19 PM 42.8 °F 40.1 °F 35.6 °F 76% 30.15 in 1.2 mi East 4.6 mph - N/A   Haze
4:21 PM 42.8 °F 41.1 °F 35.6 °F 76% 30.15 in 2.5 mi East 3.5 mph - N/A   Haze
4:28 PM 42.8 °F 39.3 °F 35.6 °F 76% 30.15 in 10.0 mi ENE 5.8 mph - N/A   Partly Cloudy
4:56 PM 42.1 °F 37.7 °F 37.0 °F 82% 30.17 in 10.0 mi NE 6.9 mph - N/A   Clear
5:16 PM 39.2 °F 35.0 °F 39.2 °F 100% 30.14 in 1.8 mi NNE 5.8 mph - N/A   Partly Cloudy
5:18 PM 39.2 °F 35.0 °F 37.4 °F 93% 30.14 in 0.8 mi NNE 5.8 mph - N/A   Mist
5:27 PM 39.2 °F 35.9 °F 37.4 °F 93% 30.14 in 0.2 mi NNE 4.6 mph - 0.00 in Fog , Rain Light Rain
5:43 PM 41.0 °F - 39.2 °F 93% 30.14 in 1.0 mi Calm Calm - 0.00 in Rain Light Rain
5:47 PM 39.2 °F - 39.2 °F 100% 30.14 in 0.2 mi Calm Calm - 0.00 in Fog Fog
5:56 PM 41.0 °F 36.4 °F 39.0 °F 93% 30.17 in 0.2 mi NE 6.9 mph - 0.00 in Fog Fog
5:59 PM 41.0 °F 37.1 °F 39.2 °F 93% 30.14 in 1.0 mi NE 5.8 mph - N/A   Mist
6:01 PM 41.0 °F 39.0 °F 39.2 °F 93% 30.14 in 4.0 mi Variable 3.5 mph - N/A   Scattered Clouds
6:04 PM 41.0 °F - 39.2 °F 93% 30.14 in 1.0 mi Calm Calm - N/A   Mist
6:07 PM 39.2 °F 35.9 °F 39.2 °F 100% 30.14 in 0.2 mi NNE 4.6 mph - N/A Fog Fog
6:56 PM 39.9 °F 36.7 °F 39.0 °F 97% 30.17 in 0.2 mi ENE 4.6 mph - N/A Fog Fog
7:35 PM 39.2 °F 34.2 °F 37.4 °F 93% 30.13 in 1.5 mi East 6.9 mph - N/A   Scattered Clouds
7:37 PM 39.2 °F 35.0 °F 37.4 °F 93% 30.13 in 5.0 mi ENE 5.8 mph - N/A   Scattered Clouds
7:56 PM 39.0 °F 34.8 °F 37.0 °F 93% 30.16 in 10.0 mi East 5.8 mph - N/A   Clear
8:42 PM 37.4 °F - 37.4 °F 100% 30.13 in 0.5 mi Calm Calm - N/A Fog Fog
8:49 PM 37.4 °F 33.8 °F 37.4 °F 100% 30.13 in 0.2 mi East 4.6 mph - N/A Fog , Rain Light Rain
8:56 PM 39.0 °F 34.8 °F 37.0 °F 93% 30.16 in 0.2 mi East 5.8 mph - N/A Fog , Rain Light Rain
9:49 PM 39.2 °F - 37.4 °F 93% 30.13 in 1.0 mi Calm Calm - N/A   Mist
9:54 PM 37.4 °F - 37.4 °F 100% 30.13 in 0.2 mi Calm Calm - N/A Fog Fog
9:56 PM 37.9 °F 35.5 °F 37.0 °F 97% 30.16 in 0.2 mi East 3.5 mph - N/A Fog Fog
10:56 PM 37.9 °F 33.5 °F 37.0 °F 97% 30.14 in 1.2 mi SE 5.8 mph - N/A   Mostly Cloudy
11:07 PM 37.4 °F 32.1 °F 37.4 °F 100% 30.11 in 0.5 mi ESE 6.9 mph - N/A Fog Fog
11:18 PM 37.4 °F 31.4 °F 37.4 °F 100% 30.11 in 1.2 mi ESE 8.1 mph - N/A   Scattered Clouds
11:20 PM 37.4 °F 31.4 °F 37.4 °F 100% 30.11 in 3.0 mi ESE 8.1 mph - N/A   Partly Cloudy
11:38 PM 37.4 °F 32.8 °F 37.4 °F 100% 30.11 in 0.8 mi SE 5.8 mph - N/A   Mist
11:46 PM 37.4 °F 32.1 °F 35.6 °F 93% 30.11 in 0.2 mi SSE 6.9 mph - N/A Fog Fog
11:56 PM 37.9 °F 32.1 °F 37.0 °F 97% 30.13 in 0.2 mi SE 8.1 mph - N/A Fog Fog